User: anonymous
Location: Hancock Field Station
(44.9202°N, 120.4259°W)
Time: 00:53:06
(UTC-07:00)
Language:

Nadezhda 4 Rocket - Orbit

View from above orbital plane
View from above orbital plane
View from above satellite
View from above satellite

Ground track
Ground track

The orbit data is extracted from the following two-line orbital elements,

1 23180U 94041B   14203.06789605  .00000011  00000-0 -45122-5 0  4855
2 23180 082.9468 000.5970 0027795 321.2826 176.7392 13.77840295  6779
Epoch (UTC): 22 July 2014 01:37:46
Eccentricity: 0.0027795
inclination: 82.9468°
perigee height: 951 km
apogee height: 992 km
right ascension of ascending node: 0.5970°
argument of perigee: 321.2826°
revolutions per day: 13.77840295
mean anomaly at epoch: 176.7392°
orbit number at epoch: 677

The dashed part of the orbit path shows where the satellite is in the earth's shadow,  

DLR